This is the latest recevied weather packets stored in our database for station/object E20ZNR-1. If no packets are shown the sender has not sent any weather packets the latest 10 day(s).
| Time | Temp. | Humidity | Pressure | Rain* | Wind** | Luminosity | Snow |
|---|---|---|---|---|---|---|---|
| 1777468267 | 31.11° C | 84% | 1004 hPa | - | - | 0 W/m² | - |
| 1777467342 | 31.11° C | 86% | 1003 hPa | - | - | 0 W/m² | - |
| 1777466417 | 31.11° C | 78% | 1003 hPa | - | - | 0 W/m² | - |
| 1777465492 | 31.11° C | 80% | 1003 hPa | - | - | 0 W/m² | - |
| 1777464567 | 31.11° C | 78% | 1003 hPa | - | - | 0 W/m² | - |
| 1777463641 | 31.11° C | 84% | 1003 hPa | - | - | 0 W/m² | - |
| 1777462716 | 31.67° C | 77% | 1003 hPa | - | - | 0 W/m² | - |
| 1777461791 | 32.22° C | 74% | 1003 hPa | - | - | 0 W/m² | - |
| 1777460866 | 32.22° C | 71% | 1003 hPa | - | - | 0 W/m² | - |
| 1777459941 | 32.22° C | 68% | 1002 hPa | - | - | 0 W/m² | - |
| 1777459016 | 32.78° C | 69% | 1002 hPa | - | - | 0 W/m² | - |
| 1777458091 | 33.33° C | 64% | 1002 hPa | - | - | 0 W/m² | - |
| 1777457166 | 31.67° C | 62% | 1002 hPa | - | - | 0 W/m² | - |
| 1777456241 | 32.22° C | 60% | 1002 hPa | - | - | 0 W/m² | - |
| 1777455316 | 32.22° C | 64% | 1002 hPa | - | - | 0 W/m² | - |
| 1777454391 | 32.78° C | 53% | 1002 hPa | - | - | 0 W/m² | - |
| 1777453465 | 34.44° C | 55% | 1003 hPa | - | - | 0 W/m² | - |
| 1777452541 | 36.11° C | 46% | 1002 hPa | - | - | 0 W/m² | - |
| 1777451616 | 36.67° C | 43% | 1002 hPa | - | - | 0 W/m² | - |
| 1777450691 | 38.89° C | 40% | 1001 hPa | - | - | 0 W/m² | - |
| 1777449766 | 41.11° C | 38% | 1002 hPa | - | - | 0 W/m² | - |
| 1777448841 | 40° C | 39% | 1002 hPa | - | - | 0 W/m² | - |
| 1777447915 | 40° C | 39% | 1002 hPa | - | - | 0 W/m² | - |
| 1777446990 | 40° C | 38% | 1002 hPa | - | - | 0 W/m² | - |
| 1777446065 | 41.67° C | 35% | 1002 hPa | - | - | 0 W/m² | - |
* Rain since midnight (hover to see other rain measurements)
** Current wind speed in m/s (hover to see current wind gust speed)